Regional Weather Roundup
Issued by NWS Sterling, VA

Home | Current Version | Previous Version | Graphics & Text | Print | Product List | Glossary On
Versions: 1 2 3 4 5 6 7 8 9 10 11 12 13 14 15 16 17 18 19 20 21 22 23 24 25 26 27 28
000
ASUS41 KLWX 302010
RWRLWX

REGIONAL WEATHER ROUNDUP
NATIONAL WEATHER SERVICE BALTIMORE MD/WASHINGTON DC
400 PM EDT MON MAY 30 2016

Note: "FAIR" indicates few or no clouds below 12,000 feet
with no significant weather and/or obstructions to visibility.
 TC=TEMPERATURE CELSIUS

 * =Non NWS site. Station does not report precipitation (e.g. rain,
    snow, etc.), thunder, or fog.

DCZ001-MDZ009-015-VAZ040>042-051-053>054-302100-
WASHINGTON METRO

CITY           SKY/WX    TMP DP  RH WIND       PRES   REMARKS
WASHINGTON NAT PTSUNNY   79  70  74 S8        29.96F
DULLES         PTSUNNY   81  65  58 SE3       29.95F
ANDREWS AFB    PTSUNNY   76  69  80 SE9       29.96F
FT BELVOIR     FAIR      78  69  74 VRB3      29.95F
QUANTICO       CLOUDY    76  70  82 S6        29.97F
COLLEGE PARK*  CLOUDY    79  68  69 SE8       29.95F
LEESBURG*      FAIR      86  68  54 SW7       29.96F
MANASSAS*      CLOUDY    81  70  69 S5        29.95F

$$

MDZ006>007-011-014-302100-
BALTIMORE METRO

CITY           SKY/WX    TMP DP  RH WIND       PRES   REMARKS
BWI AIRPORT    LGT RAIN  78  67  68 S8        29.95F
MD SCIENCE CTR   N/A     78  60  53 MISG      29.95F
MARTIN STATE   PTSUNNY   79  68  69 SE10      29.97F
ANNAPOLIS      CLOUDY    74  68  81 SE10      29.96F
FORT MEADE*    CLOUDY    77  68  73 SE9       29.98F

$$

MDZ012-015-019>023-302100-
MARYLAND EASTERN SHORE

CITY           SKY/WX    TMP DP  RH WIND       PRES   REMARKS
OCEAN CITY     LGT RAIN  68  68 100 CALM      29.99F FOG
SALISBURY      LGT RAIN  72  70  93 S6        29.98F FOG
BAY BRIDGE AP* CLOUDY    75  70  83 S8        29.97F
CAMBRIDGE*       N/A     72  70  94 S3        29.97F
EASTON*        DRIZZLE   73  73 100 S8        30.01F

$$

MDZ017>025-302100-
SOUTHERN MARYLAND

CITY           SKY/WX    TMP DP  RH WIND       PRES   REMARKS
PATUXENT RIVER CLOUDY    71  68  90 S7        29.98F
ST INIGOES     LGT RAIN  72  69  90 SE7       29.98S
LEONARDTOWN*   CLOUDY    70  68  94 SE7       29.99F

$$

MDZ003>005-302100-
NORTH CENTRAL MARYLAND

CITY           SKY/WX    TMP DP  RH WIND       PRES   REMARKS
FREDERICK*     MOSUNNY   84  66  54 SW6       29.97F
HAGERSTOWN APT MOSUNNY   84  59  42 VRB6      29.95F
WESTMINSTER*   MOSUNNY   84  81  89 S3        29.96F HX  98

$$

MDZ501>502-302100-
WESTERN MARYLAND

CITY           SKY/WX    TMP DP  RH WIND       PRES   REMARKS
OAKLAND*       PTSUNNY   72  59  64 NW7       30.06S
CUMBERLAND*    PTSUNNY   82  64  54 SE5       29.97F

$$

VAZ025>031-302100-
SHENANDOAH VALLEY

CITY           SKY/WX    TMP DP  RH WIND       PRES   REMARKS
WINCHESTER*    FAIR      82  63  51 SE6       29.96F
FRONT ROYAL*   FAIR      82  63  51 E3        29.95F
LURAY*         FAIR      82  61  47 NE5       29.97S
NEW MARKET*    FAIR      80  64  56 SE5       29.95S
STAUNTON*      CLOUDY    80  58  46 CALM      30.00S
WAYNESBORO*    FAIR      80  63  55 SE5       30.00S

$$

WVZ021-048>050-054>055-302100-
EASTERN WEST VIRGINIA PANHANDLE

CITY           SKY/WX    TMP DP  RH WIND       PRES   REMARKS
MARTINSBURG    FAIR      82  61  48 S6        29.94F
PETERSBURG*    FAIR      84  63  47 E5        29.96F

$$

VAZ036>039-050-302100-
CENTRAL FOOTHILLS

CITY           SKY/WX    TMP DP  RH WIND       PRES   REMARKS
CHARLOTTESVILL FAIR      82  65  56 CALM      29.96F
CULPEPER*      FAIR      81  70  68 S3        29.96F
ORANGE*        FAIR      81  68  65 CALM      29.98F
GORDONSVILLE*  FAIR      80  69  70 SE5       29.96S
WARRENTON*     PTSUNNY   82  64  54 S5        29.95F

$$

VAZ055>057-302100-
NORTH AND CENTRAL PIEDMONT

CITY           SKY/WX    TMP DP  RH WIND       PRES   REMARKS
FREDERICKSBRG* PTSUNNY   78  70  76 CALM      29.96S
STAFFORD*      PTSUNNY   77  68  74 CALM      30.01S

$$

NCZ024-NYZ072-PAZ021-071-VAZ022-071-302100-
OTHER REGIONAL OBSERVATIONS

CITY           SKY/WX    TMP DP  RH WIND       PRES   REMARKS
NEW YORK CITY  CLOUDY    77  68  73 CALM      29.96F
PHILADELPHIA   CLOUDY    78  66  66 S9        29.95F
PITTSBURGH     PTSUNNY   82  56  40 NW12      30.00F
ROANOKE        FAIR      82  60  47 E6        29.99F
RICHMOND       LGT RAIN  71  69  93 SE5       29.97F FOG
RALEIGH        TSTM      75  72  88 E16       29.93F FOG

$$

ANZ530>537-302100-
MARINE OBSERVATIONS

STATION/POSITION TIME  TEMP    WIND        PRES
                       AIR SEA DIR/SP/G
                 (UTC) (F)     (DEG/KT/KT) (MB)
THOMAS PT LIGHT  2000   71 70  180/ 11/ 12 1016.1F
BALT KEY BRIDGE  1900   74     120/  7/  8 1014.8F
COVE POINT       1900   68     180/ 10/ 10 1016.0F
LEWISETTA        1900   72 72  180/  6/  7 1015.0F
SOLOMONS ISLAND  1900   71 66  150/  3/  4   N/A
PINEY POINT      1900          140/  9/ 10   N/A

$$





USA.gov is the U.S. government's official web portal to all federal, state and local government web resources and services.